Location: Los Gatos B&B
(42.6926°N, 77.0646°W)
Time: 15:08:40
(UTC-05:00)

Cosmos 2263 Rocket - Visible Passes

Search period start: 18 January 2017 00:00
Search period end: 28 January 2017 00:00
Orbit: 822 x 850 km, 71.0° (Epoch: 18 January)

Date Brightness Start Highest point End Pass type
(mag) Time Alt. Az. Time Alt. Az. Time Alt. Az.
18 Jan 3.4 06:29:20 10° S 06:34:45 48° ESE 06:40:12 10° NE visible
19 Jan 3.5 06:12:44 10° S 06:18:04 44° ESE 06:23:27 10° NE visible
20 Jan 3.6 05:56:08 10° S 06:01:23 41° ESE 06:06:41 10° NE visible
21 Jan 3.7 05:39:33 10° S 05:44:43 37° ESE 05:49:55 10° NE visible
22 Jan 3.9 05:23:00 10° SSE 05:28:03 34° ESE 05:33:08 10° NE visible
23 Jan 4.0 05:06:27 10° SSE 05:11:22 32° ESE 05:16:20 10° NE visible
23 Jan 2.7 06:49:51 10° SW 06:55:09 40° WNW 07:00:31 10° NNE visible
24 Jan 4.1 04:49:54 10° SSE 04:54:42 29° ESE 04:59:32 10° NE visible
24 Jan 2.6 06:33:03 10° SW 06:38:25 43° WNW 06:43:51 10° NNE visible
25 Jan 4.1 04:33:24 10° SSE 04:38:02 27° ESE 04:42:43 10° NE visible
25 Jan 2.5 06:16:14 10° SW 06:21:41 46° WNW 06:27:10 10° NNE visible
26 Jan 4.2 04:16:53 10° SSE 04:21:22 25° ESE 04:25:53 10° NE visible
26 Jan 2.4 05:59:26 10° SW 06:04:58 50° WNW 06:10:30 10° NNE visible
27 Jan 4.3 04:02:02 16° SE 04:04:43 23° E 04:09:02 10° NE visible
27 Jan 2.3 05:43:54 17° SW 05:48:12 54° WNW 05:53:49 10° NNE visible
